カタログに戻る

FIREFLY ALPHA R/B

運用中SSO
NORAD 60210·ROCKET BODY·🇺🇸 United States

打ち上げ Jul 4, 2024 から Vandenberg Space Force Base

Loading…

次のパス (今後24時間)

TLE

最新Source: Space-Track

元期: Sep 14, 2026, 14:40 UTC

1 60210U 24125H   26257.61143205  .00056241  00000-0  39054-3 0  9999
2 60210  97.1947 124.1749 0015948 194.5086 165.5723 15.74096066124006

AllMySatでFIREFLY ALPHA R/Bをリアルタイム追跡

Download on the App Store